| time (UTC) | temp F | wind direction | speed MPH | gust MPH | rain 1hr in | rain 24hr in | rain mn in | humidity % | barometer mb |
| 20260508144534 | 58 | 160 | 4.0 | 10.0 | 0.00 | 0.04 | 0.00 | 61 | 1010.3 |
| 20260508143047 | 57 | 88 | 5.0 | 9.0 | 0.00 | 0.04 | 0.00 | 62 | 1010.3 |
| 20260508141532 | 56 | 79 | 3.0 | 7.0 | 0.00 | 0.04 | 0.00 | 64 | 1010.4 |
| 20260508140038 | 54 | 113 | 2.0 | 7.0 | 0.00 | 0.04 | 0.00 | 69 | 1010.5 |
| 20260508134529 | 52 | 0 | 3.0 | 5.0 | 0.00 | 0.04 | 0.00 | 80 | 1010.6 |
| 20260508133032 | 48 | 180 | 1.0 | 5.0 | 0.00 | 0.04 | 0.00 | 92 | 1010.4 |
| 20260508131533 | 47 | 0 | 0.0 | 3.0 | 0.00 | 0.04 | 0.00 | 94 | 1010.6 |
| 20260508130041 | 45 | 0 | 0.0 | 3.0 | 0.00 | 0.04 | 0.00 | 94 | 1010.8 |
| 20260508124535 | 43 | 115 | 1.0 | 3.0 | 0.00 | 0.04 | 0.00 | 94 | 1010.8 |
| 20260508123042 | 40 | 0 | 1.0 | 3.0 | 0.00 | 0.04 | 0.00 | 94 | 1010.9 |
| 20260508121535 | 36 | 0 | 0.0 | 0.0 | 0.00 | 0.04 | 0.00 | 93 | 1010.8 |
| 20260508120030 | 34 | 0 | 0.0 | 0.0 | 0.00 | 0.04 | 0.00 | 92 | 1010.8 |
| 20260508114535 | 32 | 0 | 0.0 | 0.0 | 0.00 | 0.04 | 0.00 | 92 | 1010.7 |
| 20260508113030 | 31 | 0 | 0.0 | 0.0 | 0.00 | 0.04 | 0.00 | 91 | 1010.7 |
| 20260508111534 | 31 | 0 | 0.0 | 0.0 | 0.00 | 0.04 | 0.00 | 90 | 1010.6 |
| 20260508110036 | 31 | 0 | 0.0 | 0.0 | 0.00 | 0.04 | 0.00 | 90 | 1010.3 |
| 20260508104532 | 31 | 0 | 0.0 | 0.0 | 0.00 | 0.04 | 0.00 | 90 | 1010.3 |
| 20260508103038 | 31 | 0 | 0.0 | 0.0 | 0.00 | 0.04 | 0.00 | 90 | 1010.3 |
| 20260508101538 | 32 | 0 | 0.0 | 0.0 | 0.00 | 0.04 | 0.00 | 90 | 1010.3 |
| 20260508100030 | 32 | 0 | 0.0 | 0.0 | 0.00 | 0.04 | 0.00 | 90 | 1010.4 |
| 20260508094542 | 32 | 0 | 0.0 | 0.0 | 0.00 | 0.04 | 0.00 | 90 | 1010.3 |
| 20260508093030 | 33 | 0 | 0.0 | 0.0 | 0.00 | 0.04 | 0.00 | 90 | 1010.6 |
| 20260508091545 | 33 | 0 | 0.0 | 0.0 | 0.00 | 0.04 | 0.00 | 90 | 1010.4 |
| 20260508090042 | 33 | 0 | 0.0 | 3.0 | 0.00 | 0.04 | 0.00 | 91 | 1010.5 |
| 20260508084530 | 34 | 360 | 0.0 | 2.0 | 0.00 | 0.04 | 0.00 | 90 | 1010.7 |
| 20260508083030 | 34 | 0 | 0.0 | 2.0 | 0.00 | 0.04 | 0.00 | 90 | 1010.8 |
| 20260508081539 | 35 | 0 | 0.0 | 0.0 | 0.00 | 0.04 | 0.00 | 90 | 1010.8 |
| 20260508080035 | 35 | 0 | 0.0 | 0.0 | 0.00 | 0.04 | 0.00 | 90 | 1010.8 |
| 20260508074532 | 36 | 0 | 0.0 | 0.0 | 0.00 | 0.04 | 0.00 | 90 | 1010.8 |
| 20260508073035 | 36 | 0 | 0.0 | 2.0 | 0.00 | 0.04 | 0.00 | 91 | 1011.0 |
| 20260508071536 | 36 | 0 | 0.0 | 3.0 | 0.00 | 0.04 | 0.00 | 91 | 1011.1 |
| 20260508070046 | 36 | 0 | 0.0 | 2.0 | 0.00 | 0.04 | 0.00 | 91 | 1011.0 |
| 20260508064535 | 36 | 0 | 0.0 | 0.0 | 0.00 | 0.04 | 0.00 | 90 | 1011.2 |
| 20260508063030 | 35 | 0 | 0.0 | 0.0 | 0.00 | 0.04 | 0.00 | 90 | 1011.1 |
| 20260508061534 | 35 | 0 | 0.0 | 0.0 | 0.00 | 0.04 | 0.00 | 89 | 1011.1 |
| 20260508060036 | 35 | 0 | 0.0 | 3.0 | 0.00 | 0.04 | 0.00 | 88 | 1011.2 |
| 20260508054541 | 35 | 0 | 0.0 | 0.0 | 0.00 | 0.04 | 0.00 | 88 | 1011.2 |
| 20260508053030 | 36 | 0 | 0.0 | 0.0 | 0.00 | 0.04 | 0.00 | 88 | 1011.2 |
| 20260508051533 | 36 | 0 | 0.0 | 0.0 | 0.00 | 0.04 | 0.00 | 88 | 1011.2 |
| 20260508050030 | 36 | 0 | 0.0 | 0.0 | 0.00 | 0.04 | 0.00 | 87 | 1011.0 |
| 20260508044530 | 37 | 0 | 0.0 | 0.0 | 0.00 | 0.04 | 0.04 | 87 | 1010.9 |
| 20260508043030 | 37 | 0 | 0.0 | 0.0 | 0.00 | 0.04 | 0.04 | 88 | 1010.8 |
| 20260508041529 | 38 | 0 | 0.0 | 0.0 | 0.00 | 0.04 | 0.04 | 87 | 1010.6 |
| 20260508040036 | 38 | 0 | 0.0 | 0.0 | 0.00 | 0.04 | 0.04 | 87 | 1010.6 |
| 20260508034537 | 39 | 0 | 0.0 | 0.0 | 0.00 | 0.04 | 0.04 | 88 | 1010.6 |
| 20260508033036 | 40 | 0 | 0.0 | 3.0 | 0.00 | 0.04 | 0.04 | 88 | 1010.6 |
| 20260508031536 | 40 | 0 | 1.0 | 5.0 | 0.00 | 0.04 | 0.04 | 88 | 1010.6 |
| 20260508030030 | 40 | 0 | 0.0 | 5.0 | 0.00 | 0.04 | 0.04 | 88 | 1010.6 |
| 20260508024536 | 41 | 0 | 0.0 | 6.0 | 0.00 | 0.04 | 0.04 | 87 | 1010.4 |
| 20260508023050 | 40 | 5 | 2.0 | 6.0 | 0.00 | 0.04 | 0.04 | 85 | 1010.4 |
| 20260508021534 | 41 | 341 | 1.0 | 3.0 | 0.00 | 0.04 | 0.04 | 83 | 1010.2 |
| 20260508020033 | 42 | 0 | 0.0 | 0.0 | 0.00 | 0.04 | 0.04 | 83 | 1010.0 |
| 20260508014532 | 42 | 42 | 0.0 | 2.0 | 0.00 | 0.04 | 0.04 | 84 | 1009.8 |
| 20260508013032 | 43 | 0 | 0.0 | 2.0 | 0.00 | 0.04 | 0.04 | 82 | 1009.6 |
| 20260508011530 | 44 | 0 | 0.0 | 0.0 | 0.00 | 0.04 | 0.04 | 80 | 1009.4 |
| 20260508010036 | 44 | 0 | 0.0 | 3.0 | 0.00 | 0.04 | 0.04 | 80 | 1009.4 |
| 20260508004534 | 45 | 0 | 0.0 | 9.0 | 0.00 | 0.04 | 0.04 | 80 | 1009.2 |
| 20260508003033 | 46 | 155 | 3.0 | 7.0 | 0.00 | 0.04 | 0.04 | 79 | 1008.9 |
| 20260508001546 | 46 | 154 | 1.0 | 7.0 | 0.00 | 0.04 | 0.04 | 81 | 1008.9 |
| 20260508000032 | 46 | 155 | 4.0 | 9.0 | 0.00 | 0.04 | 0.04 | 82 | 1008.8 |
| 20260507234530 | 46 | 148 | 4.0 | 9.0 | 0.00 | 0.04 | 0.04 | 84 | 1008.9 |
| 20260507233034 | 46 | 166 | 4.0 | 10.0 | 0.02 | 0.04 | 0.04 | 86 | 1008.8 |
| 20260507231531 | 45 | 0 | 0.0 | 6.0 | 0.03 | 0.04 | 0.04 | 85 | 1009.3 |
| 20260507230036 | 45 | 0 | 0.0 | 9.0 | 0.03 | 0.04 | 0.04 | 82 | 1009.6 |
| 20260507224535 | 46 | 177 | 2.0 | 12.0 | 0.03 | 0.04 | 0.04 | 81 | 1009.4 |
| 20260507223031 | 46 | 0 | 0.0 | 12.0 | 0.01 | 0.02 | 0.02 | 72 | 1010.6 |
| 20260507221531 | 48 | 64 | 3.0 | 14.0 | 0.00 | 0.01 | 0.01 | 67 | 1010.2 |
| 20260507220033 | 50 | 75 | 7.0 | 12.0 | 0.00 | 0.01 | 0.01 | 66 | 1009.8 |
| 20260507214530 | 52 | 140 | 6.0 | 12.0 | 0.00 | 0.01 | 0.01 | 65 | 1009.6 |
| 20260507213039 | 52 | 63 | 5.0 | 18.0 | 0.00 | 0.01 | 0.01 | 65 | 1009.5 |
| 20260507211543 | 51 | 68 | 4.0 | 12.0 | 0.00 | 0.01 | 0.01 | 64 | 1009.2 |
| 20260507210035 | 51 | 84 | 5.0 | 12.0 | 0.00 | 0.01 | 0.01 | 63 | 1009.2 |
| 20260507204533 | 51 | 114 | 5.0 | 17.0 | 0.01 | 0.01 | 0.01 | 63 | 1009.3 |
| 20260507203031 | 51 | 101 | 6.0 | 18.0 | 0.01 | 0.01 | 0.01 | 63 | 1009.7 |
| 20260507201537 | 49 | 91 | 4.0 | 16.0 | 0.01 | 0.01 | 0.01 | 69 | 1010.1 |
| 20260507200037 | 47 | 87 | 3.0 | 12.0 | 0.01 | 0.01 | 0.01 | 71 | 1010.5 |
| 20260507194532 | 47 | 217 | 3.0 | 16.0 | 0.00 | 0.00 | 0.00 | 63 | 1011.2 |
| 20260507193038 | 50 | 161 | 5.0 | 17.0 | 0.00 | 0.00 | 0.00 | 58 | 1010.8 |
| 20260507191531 | 52 | 161 | 11.0 | 18.0 | 0.00 | 0.00 | 0.00 | 53 | 1011.1 |
| 20260507190032 | 51 | 67 | 9.0 | 19.0 | 0.00 | 0.00 | 0.00 | 52 | 1010.8 |
| 20260507184533 | 50 | 145 | 5.0 | 16.0 | 0.00 | 0.00 | 0.00 | 55 | 1011.2 |
| 20260507183034 | 48 | 109 | 7.0 | 17.0 | 0.00 | 0.00 | 0.00 | 55 | 1011.6 |
| 20260507181531 | 48 | 142 | 5.0 | 16.0 | 0.00 | 0.00 | 0.00 | 56 | 1011.9 |
| 20260507180045 | 48 | 110 | 5.0 | 17.0 | 0.00 | 0.00 | 0.00 | 55 | 1011.9 |
| 20260507174533 | 49 | 134 | 5.0 | 14.0 | 0.00 | 0.00 | 0.00 | 53 | 1012.1 |
| 20260507173036 | 49 | 135 | 5.0 | 11.0 | 0.00 | 0.00 | 0.00 | 51 | 1012.1 |
| 20260507171529 | 50 | 162 | 5.0 | 16.0 | 0.00 | 0.00 | 0.00 | 50 | 1012.3 |
| 20260507170045 | 52 | 24 | 4.0 | 15.0 | 0.00 | 0.00 | 0.00 | 46 | 1012.5 |
| 20260507164531 | 55 | 115 | 3.0 | 14.0 | 0.00 | 0.00 | 0.00 | 45 | 1012.5 |
| 20260507163030 | 57 | 181 | 6.0 | 13.0 | 0.00 | 0.00 | 0.00 | 38 | 1012.5 |
| 20260507161530 | 57 | 130 | 3.0 | 10.0 | 0.00 | 0.00 | 0.00 | 40 | 1012.8 |
| 20260507160032 | 56 | 193 | 2.0 | 11.0 | 0.00 | 0.00 | 0.00 | 44 | 1013.1 |
| 20260507154532 | 55 | 213 | 1.0 | 6.0 | 0.00 | 0.00 | 0.00 | 46 | 1013.2 |
| 20260507153031 | 54 | 160 | 2.0 | 7.0 | 0.00 | 0.00 | 0.00 | 42 | 1013.5 |
| 20260507151533 | 53 | 88 | 2.0 | 9.0 | 0.00 | 0.00 | 0.00 | 43 | 1013.9 |
| 20260507150030 | 52 | 227 | 3.0 | 11.0 | 0.00 | 0.00 | 0.00 | 46 | 1014.2 |